Location: ????????
(55.0097°N, 38.5678°E)
Time: 07:57:24
(UTC+00:00)

NOSS 3-1 (C) - Visible Passes

Search period start: 22 July 2024 00:00
Search period end: 01 August 2024 00:00
Orbit: 649 x 1556 km, 63.4° (Epoch: 18 July)

Date Brightness Start Highest point End Pass type
(mag) Time Alt. Az. Time Alt. Az. Time Alt. Az.
22 Jul 3.1 19:00:03 10° SW 19:05:07 77° SE 19:11:25 10° NE visible
22 Jul 4.5 20:51:04 10° W 20:56:23 47° NNW 21:02:59 10° ENE visible
22 Jul 5.0 22:42:40 10° WNW 22:48:28 43° N 22:55:39 10° E visible
23 Jul 4.2 20:05:03 10° WSW 20:10:19 55° NNW 20:16:54 10° NE visible
23 Jul 5.0 21:56:42 10° WNW 22:02:18 41° N 22:09:13 10° ENE visible
23 Jul 4.6 23:47:51 10° NW 23:54:16 59° NNE 00:02:18 10° ESE visible
24 Jul 3.7 19:19:09 10° WSW 19:24:22 69° NNW 19:30:54 10° NE visible
24 Jul 4.9 21:10:41 10° WNW 21:16:07 41° N 21:22:52 10° ENE visible
24 Jul 4.8 23:02:02 10° NW 23:08:12 50° NNE 23:15:54 10° E visible
25 Jul 3.3 18:33:24 10° SW 18:38:32 89° SE 18:44:56 10° NE visible
25 Jul 4.7 20:24:38 10° W 20:29:58 44° NNW 20:36:37 10° ENE visible
25 Jul 4.9 22:16:10 10° WNW 22:22:05 45° NNE 22:29:26 10° E visible
26 Jul 4.1 00:07:02 10° NW 00:13:47 80° NE 00:22:12 10° SE visible
26 Jul 4.4 19:38:36 10° W 19:43:53 50° NNW 19:50:29 10° NE visible
26 Jul 5.0 21:30:15 10° WNW 21:35:56 41° N 21:42:59 10° ENE visible
26 Jul 4.4 23:21:16 10° NW 23:27:49 65° NNE 23:36:01 10° ESE visible
27 Jul 4.0 18:52:38 10° WSW 18:57:53 61° NNW 19:04:26 10° NE visible
27 Jul 5.0 20:44:14 10° WNW 20:49:45 41° N 20:56:35 10° ENE visible
27 Jul 4.6 22:35:30 10° NW 22:41:48 54° NNE 22:49:39 10° E visible
28 Jul 4.0 00:26:13 10° NW 00:33:05 73° SW 00:41:38 10° SE visible
28 Jul 4.8 19:58:12 10° W 20:03:36 42° N 20:10:16 10° ENE visible
28 Jul 4.8 21:49:40 10° WNW 21:55:42 47° NNE 22:03:13 10° E visible
28 Jul 4.0 23:40:27 10° NW 23:47:16 88° NE 23:55:46 10° SE visible
29 Jul 4.6 19:12:09 10° W 19:17:28 47° NNW 19:24:05 10° ENE visible
29 Jul 4.9 21:03:46 10° WNW 21:09:33 43° N 21:16:45 10° E visible
29 Jul 4.2 22:54:42 10° NW 23:01:21 72° NNE 23:09:40 10° ESE visible
30 Jul 4.2 18:26:09 10° WSW 18:31:25 55° NNW 18:38:00 10° NE visible
30 Jul 5.0 20:17:47 10° WNW 20:23:24 41° N 20:30:18 10° ENE visible
30 Jul 4.4 22:08:57 10° NW 22:15:22 59° NNE 22:23:23 10° ESE visible
30 Jul 4.0 23:59:38 10° NW 00:06:32 64° SW 00:15:00 10° SSE visible
31 Jul 4.9 19:31:46 10° WNW 19:37:13 41° N 19:43:57 10° ENE visible
31 Jul 4.7 21:23:08 10° NW 21:29:18 50° NNE 21:36:59 10° E visible
31 Jul 3.9 23:13:52 10° NW 23:20:44 82° SW 23:29:16 10° SE visible
